Location: ?ern� Novina
(50.6762°N, 14.8696°E)
Time: 11:44:34
(UTC+00:00)

Cosmos 1339 Rocket - Pass Details

Date: 03 March 2021
Orbit: 942 x 1005 km, 82.9° (Epoch: 12 April)

Event Time Altitude Azimuth Distance (km) Brightness Sun altitude
Rises 18:16:59 0° 351° (N) 3,648 7.7 -15.3°
Reaches altitude 10° 18:19:30 10° 353° (N) 2,706 7.0 -15.6°
Maximum altitude 18:25:41 71° 78° (ENE) 1,026 4.4 -16.6°
Drops below altitude 10° 18:31:56 10° 163° (SSE) 2,731 6.6 -17.6°
Sets 18:34:29 0° 165° (SSE) 3,684 7.3 -18.0°
